Weather History for Sigonella, Italy

Change the Weather History Date:

Monday, January 28, 2013

  Actual Average Record
Temperature  
Mean Temperature 42 °F -  
Max Temperature 53 °F 61 °F 66 °F (2008)
Min Temperature 32 °F 42 °F 30 °F (2000)
Degree Days  
Heating Degree Days 22    
Moisture  
Dew Point 41 °F    
Average Humidity 90    
Maximum Humidity 100    
Minimum Humidity 55    
Precipitation  
Precipitation 0.00 in 0.06 in - ()
Sea Level Pressure  
Sea Level Pressure 29.97 in    
Wind  
Wind Speed 4 mph ()    
Max Wind Speed 12 mph    
Max Gust Speed -    
Visibility 5.7 miles    
Events      
Averages and records for this station are not official NWS values.
T = Trace of Precipitation, MM = Missing Value Source: Averaged Metar Reports

Daily Weather History Graph

Daily Weather History Graph

Search for Another Location

Airport:

Trip Planner

Search our weather history database for the weather conditions in past years. The results will help you decide how hot, cold, wet, or windy it might be!

Date:

Astronomy

Jan. 28, 2013 Rise Set
Actual Time 7:06 AM CET 5:20 PM CET
Civil Twilight 6:39 AM CET 5:48 PM CET
Nautical Twilight 6:07 AM CET 6:19 PM CET
Astronomical Twilight 5:36 AM CET 6:50 PM CET
Moon 6:54 PM CET (1/28) 7:25 AM CET (1/28)
Length of Visible Light 11h 08m
Length of Day
10h 13m
Full, 98% of the Moon is Illuminated
Jan 28
Full
Feb 3
Last Quarter
Feb 10
New
Feb 17
First Quarter
Feb 25
Full

Hourly Weather History & Observations

Time (CET) Temp. Windchill Dew Point Humidity Pressure Visibility Wind Dir Wind Speed Gust Speed Precip Events Conditions
12:55 AM 37.4 °F 34.9 °F 37.4 °F 100% 30.04 in 6.2 mi SW 3.5 mph - N/A   Partly Cloudy
1:00 AM 37 °F - 37 °F 100% 30.06 in 6 mi SW 3.5 mph - -   Scattered Clouds
1:55 AM 37.4 °F 32.8 °F 37.4 °F 100% 30.04 in 6.2 mi NW 5.8 mph - N/A   Partly Cloudy
2:55 AM 37.4 °F - 37.4 °F 100% 30.04 in 6.2 mi SSW 2.3 mph - N/A   Partly Cloudy
3:55 AM 37.4 °F 34.9 °F 37.4 °F 100% 30.04 in 6.2 mi WSW 3.5 mph - N/A   Partly Cloudy
4:00 AM 37 °F - 37 °F 100% 30.05 in 6 mi WSW 3.5 mph - -   Scattered Clouds
4:55 AM 37.4 °F 33.8 °F 37.4 °F 100% 30.01 in 6.2 mi West 4.6 mph - N/A   Partly Cloudy
5:55 AM 37.4 °F 32.1 °F 37.4 °F 100% 30.01 in 6.2 mi WNW 6.9 mph - N/A   Partly Cloudy
6:55 AM 32.0 °F 25.6 °F 32.0 °F 100% 30.01 in 6.2 mi West 6.9 mph - N/A   Partly Cloudy
7:00 AM 33 °F - 33 °F 98% 30.03 in 6 mi West 6.9 mph - -   Scattered Clouds
7:55 AM 33.8 °F 29.6 °F 33.8 °F 100% 30.01 in 6.2 mi West 4.6 mph - N/A   Partly Cloudy
8:55 AM 41.0 °F - 39.2 °F 93% 29.98 in 4.3 mi WNW 2.3 mph - N/A   Partly Cloudy
9:55 AM 42.8 °F 40.1 °F 39.2 °F 87% 30.01 in 4.3 mi WNW 4.6 mph - N/A   Partly Cloudy
10:00 AM 43 °F - 39 °F 79% 30.01 in 4 mi WNW 4.6 mph - -   Mist
10:55 AM 51.8 °F - 37.4 °F 58% 29.98 in 6.2 mi WNW 9.2 mph - N/A   Partly Cloudy
11:55 AM 51.8 °F - 37.4 °F 58% 29.98 in 6.2 mi WNW 11.5 mph - N/A   Scattered Clouds
12:55 PM 51.8 °F - 39.2 °F 62% 29.98 in 6.2 mi NNW 6.9 mph - N/A   Mostly Cloudy
1:00 PM 51 °F - 40 °F 55% 29.98 in 7 mi NNW 6.9 mph - -   Overcast
1:55 PM 51.8 °F - 41.0 °F 67% 29.95 in 6.2 mi NNW 4.6 mph - N/A   Mostly Cloudy
2:55 PM 51.8 °F - 42.8 °F 71% 29.92 in 3.7 mi NW 4.6 mph - N/A   Mostly Cloudy
3:55 PM 51.8 °F - 48.2 °F 88% 29.92 in 4.3 mi North 4.6 mph - N/A   Mostly Cloudy
4:00 PM 51 °F - 48 °F 86% 29.93 in 4 mi North 4.6 mph - -   Mist
4:55 PM 50.0 °F - 48.2 °F 94% 29.89 in 4.3 mi South 2.3 mph - N/A   Mostly Cloudy
5:55 PM 46.4 °F 42.9 °F 46.4 °F 100% 29.89 in 5.0 mi South 6.9 mph - N/A   Mostly Cloudy
6:55 PM 46.4 °F - 46.4 °F 100% 29.89 in 6.2 mi South 2.3 mph - N/A   Scattered Clouds
7:00 PM 46 °F - 46 °F 99% 29.91 in 6 mi South 2.3 mph - -   Partly Cloudy
7:55 PM 46.4 °F - 46.4 °F 100% 29.89 in 6.2 mi NNW 2.3 mph - N/A   Scattered Clouds
8:55 PM 44.6 °F 42.2 °F 44.6 °F 100% 29.89 in 6.2 mi North 4.6 mph - N/A   Scattered Clouds
9:55 PM 44.6 °F - 44.6 °F 100% 29.92 in 6.2 mi SSW 2.3 mph - N/A   Scattered Clouds
10:00 PM 44 °F - 44 °F 100% 29.93 in 6 mi SSW 2.3 mph - -   Partly Cloudy
10:55 PM 44.6 °F - 44.6 °F 100% 29.89 in 6.2 mi West 2.3 mph - N/A   Scattered Clouds
11:55 PM 44.6 °F - 44.6 °F 100% 29.89 in 6.2 mi NNW 1.2 mph - N/A   Scattered Clouds